Location: Most
(50.5133°N, 13.6207°E)
Time: 16:57:26
(UTC+02:00)

Nauka - Pass Details

Date: 26 September 2021
Orbit: 417 x 423 km, 51.6° (Epoch: 26 October)

Event Time Altitude Azimuth Distance (km) Brightness Sun altitude
Rises 20:58:37 0° 282° (WNW) 2,367 ? -20.1°
Reaches altitude 10° 21:00:42 10° 283° (WNW) 1,502 ? -20.4°
Enters shadow 21:03:52 76° 303° (WNW) 436 ? -20.9°
